• In Schweiz
  • Länderverzeichnis
  • Für 7 Tage
  • Wassertemperatur
  • Satellitenkarten
  • Wetterkarte
  • Widgets
  • user-avatar
    Anmelden

    Stündliche Wetter Serednya

    Heute, 19 April, Donnerstag

    Zeit Temperatur Niederschläge Wind Luftdruck Luftfeuchtigkeit
    00:00 +10°C° 0 mm 4 m/S 746 mmHg 74%
    01:00 +9°C° 0 mm 5 m/S 746 mmHg 75%
    02:00 +8°C° 0 mm 4 m/S 746 mmHg 77%
    03:00 +9°C° 0 mm 5 m/S 746 mmHg 76%
    04:00 +9°C° 0 mm 6 m/S 745 mmHg 74%
    05:00 +9°C° 0 mm 6 m/S 745 mmHg 73%
    06:00 +10°C° 0 mm 7 m/S 745 mmHg 73%
    07:00 +10°C° 0 mm 7 m/S 744 mmHg 73%
    08:00 +11°C° 0 mm 9 m/S 744 mmHg 74%
    09:00 +12°C° 0 mm 9 m/S 744 mmHg 69%
    10:00 +13°C° 0 mm 9 m/S 743 mmHg 64%
    11:00 +13°C° 0 mm 9 m/S 743 mmHg 59%
    12:00 +15°C° 0 mm 9 m/S 743 mmHg 55%
    13:00 +16°C° 0 mm 9 m/S 743 mmHg 51%
    14:00 +16°C° 0 mm 10 m/S 743 mmHg 47%
    15:00 +16°C° 0,1 mm 9 m/S 742 mmHg 50%
    16:00 +15°C° 0,1 mm 8 m/S 742 mmHg 53%
    17:00 +13°C° 0,1 mm 8 m/S 742 mmHg 56%
    18:00 +12°C° 0,2 mm 7 m/S 742 mmHg 60%
    19:00 +11°C° 0,2 mm 7 m/S 742 mmHg 65%
    20:00 +10°C° 0,2 mm 6 m/S 742 mmHg 69%
    21:00 +9°C° 0 mm 6 m/S 743 mmHg 72%
    22:00 +8°C° 0 mm 5 m/S 743 mmHg 75%
    23:00 +7°C° 0 mm 5 m/S 743 mmHg 77%

    Morgen, 20 April, Freitag

    Zeit Temperatur Niederschläge Wind Luftdruck Luftfeuchtigkeit
    00:00 +6°C° 0 mm 5 m/S 744 mmHg 79%
    01:00 +6°C° 0 mm 5 m/S 744 mmHg 81%
    02:00 +6°C° 0 mm 4 m/S 744 mmHg 82%
    03:00 +5°C° 0 mm 4 m/S 744 mmHg 83%
    04:00 +5°C° 0 mm 4 m/S 744 mmHg 84%
    05:00 +5°C° 0 mm 5 m/S 745 mmHg 85%
    06:00 +6°C° 0 mm 5 m/S 745 mmHg 83%
    07:00 +7°C° 0 mm 5 m/S 745 mmHg 81%
    08:00 +7°C° 0 mm 6 m/S 746 mmHg 78%
    09:00 +9°C° 0 mm 6 m/S 746 mmHg 71%
    10:00 +11°C° 0 mm 6 m/S 746 mmHg 63%
    11:00 +13°C° 0 mm 6 m/S 746 mmHg 56%
    12:00 +14°C° 0 mm 6 m/S 746 mmHg 54%
    13:00 +15°C° 0 mm 6 m/S 746 mmHg 51%
    14:00 +16°C° 0 mm 6 m/S 746 mmHg 49%
    15:00 +15°C° 0 mm 5 m/S 746 mmHg 50%
    16:00 +15°C° 0 mm 5 m/S 746 mmHg 51%
    17:00 +15°C° 0 mm 4 m/S 745 mmHg 52%
    18:00 +13°C° 0 mm 4 m/S 745 mmHg 57%
    19:00 +12°C° 0 mm 3 m/S 746 mmHg 62%
    20:00 +10°C° 0 mm 2 m/S 746 mmHg 67%
    21:00 +10°C° 0 mm 2 m/S 746 mmHg 68%
    22:00 +9°C° 0 mm 2 m/S 746 mmHg 70%
    23:00 +9°C° 0 mm 2 m/S 746 mmHg 71%

    übermorgen, 21 April, Samstag

    Zeit Temperatur Niederschläge Wind Luftdruck Luftfeuchtigkeit
    00:00 +8°C° 0 mm 2 m/S 745 mmHg 72%
    01:00 +8°C° 0 mm 2 m/S 745 mmHg 74%
    02:00 +8°C° 0 mm 2 m/S 745 mmHg 75%
    03:00 +7°C° 0 mm 2 m/S 744 mmHg 76%
    04:00 +7°C° 0 mm 2 m/S 744 mmHg 78%
    05:00 +7°C° 0 mm 3 m/S 744 mmHg 79%
    06:00 +9°C° 0 mm 3 m/S 743 mmHg 74%
    07:00 +10°C° 0 mm 4 m/S 743 mmHg 69%
    08:00 +12°C° 0 mm 4 m/S 743 mmHg 64%
    09:00 +14°C° 0 mm 5 m/S 742 mmHg 58%
    10:00 +16°C° 0 mm 6 m/S 741 mmHg 53%
    11:00 +19°C° 0 mm 6 m/S 741 mmHg 47%
    12:00 +20°C° 0 mm 7 m/S 740 mmHg 45%
    13:00 +21°C° 0 mm 7 m/S 739 mmHg 42%
    14:00 +22°C° 0 mm 8 m/S 739 mmHg 40%
    15:00 +22°C° 0 mm 7 m/S 738 mmHg 46%
    16:00 +21°C° 0 mm 6 m/S 737 mmHg 51%
    17:00 +21°C° 0 mm 5 m/S 737 mmHg 57%
    18:00 +20°C° 0 mm 5 m/S 737 mmHg 60%
    19:00 +17°C° 0 mm 5 m/S 737 mmHg 63%
    20:00 +16°C° 0 mm 5 m/S 737 mmHg 65%
    21:00 +15°C° 0 mm 5 m/S 738 mmHg 64%
    22:00 +13°C° 0 mm 5 m/S 738 mmHg 63%
    23:00 +12°C° 0 mm 4 m/S 738 mmHg 62%

    22 April, Sonntag

    Zeit Temperatur Niederschläge Wind Luftdruck Luftfeuchtigkeit
    00:00 +11°C° 0 mm 4 m/S 739 mmHg 65%
    01:00 +10°C° 0 mm 4 m/S 739 mmHg 68%
    02:00 +8°C° 0 mm 4 m/S 739 mmHg 71%
    03:00 +8°C° 0 mm 3 m/S 739 mmHg 74%
    04:00 +8°C° 0 mm 3 m/S 740 mmHg 77%
    05:00 +7°C° 0 mm 3 m/S 740 mmHg 81%
    06:00 +8°C° 0 mm 3 m/S 740 mmHg 76%
    07:00 +9°C° 0 mm 3 m/S 740 mmHg 72%
    08:00 +10°C° 0 mm 3 m/S 741 mmHg 67%
    09:00 +12°C° 0 mm 3 m/S 741 mmHg 62%
    10:00 +13°C° 0 mm 4 m/S 741 mmHg 57%
    11:00 +14°C° 0 mm 4 m/S 741 mmHg 51%
    12:00 +15°C° 0 mm 4 m/S 740 mmHg 49%
    13:00 +16°C° 0 mm 5 m/S 740 mmHg 47%
    14:00 +16°C° 0 mm 5 m/S 740 mmHg 45%
    15:00 +16°C° 0 mm 5 m/S 740 mmHg 45%
    16:00 +17°C° 0 mm 4 m/S 740 mmHg 45%
    17:00 +17°C° 0 mm 4 m/S 740 mmHg 45%
    18:00 +14°C° 0 mm 4 m/S 740 mmHg 50%
    19:00 +13°C° 0 mm 3 m/S 740 mmHg 54%
    20:00 +12°C° 0 mm 2 m/S 740 mmHg 59%
    21:00 +10°C° 0 mm 2 m/S 740 mmHg 61%
    22:00 +10°C° 0 mm 2 m/S 740 mmHg 62%
    23:00 +9°C° 0 mm 2 m/S 740 mmHg 64%

    23 April, Montag

    Zeit Temperatur Niederschläge Wind Luftdruck Luftfeuchtigkeit
    00:00 +9°C° 0 mm 2 m/S 740 mmHg 65%
    01:00 +9°C° 0 mm 2 m/S 740 mmHg 66%
    02:00 +8°C° 0 mm 2 m/S 740 mmHg 67%
    03:00 +8°C° 0 mm 2 m/S 739 mmHg 69%
    04:00 +8°C° 0 mm 2 m/S 739 mmHg 71%
    05:00 +7°C° 0 mm 2 m/S 739 mmHg 74%
    06:00 +9°C° 0 mm 2 m/S 739 mmHg 71%
    07:00 +10°C° 0 mm 2 m/S 739 mmHg 68%
    08:00 +12°C° 0 mm 3 m/S 739 mmHg 65%
    09:00 +13°C° 0 mm 3 m/S 739 mmHg 59%
    10:00 +16°C° 0 mm 3 m/S 739 mmHg 53%
    11:00 +17°C° 0 mm 3 m/S 739 mmHg 47%
    12:00 +18°C° 0 mm 3 m/S 738 mmHg 45%
    13:00 +19°C° 0 mm 2 m/S 738 mmHg 42%
    14:00 +19°C° 0 mm 2 m/S 738 mmHg 39%
    15:00 +19°C° 0 mm 2 m/S 737 mmHg 39%
    16:00 +20°C° 0 mm 2 m/S 737 mmHg 39%
    17:00 +21°C° 0 mm 1 m/S 737 mmHg 39%
    18:00 +19°C° 0 mm 1 m/S 736 mmHg 44%
    19:00 +16°C° 0 mm 1 m/S 736 mmHg 49%
    20:00 +14°C° 0 mm 2 m/S 736 mmHg 53%
    21:00 +14°C° 0 mm 2 m/S 736 mmHg 56%
    22:00 +12°C° 0 mm 3 m/S 735 mmHg 59%
    23:00 +12°C° 0 mm 3 m/S 735 mmHg 62%

    24 April, Dienstag

    Zeit Temperatur Niederschläge Wind Luftdruck Luftfeuchtigkeit
    00:00 +12°C° 0,2 mm 3 m/S 735 mmHg 65%
    01:00 +12°C° 0,2 mm 3 m/S 734 mmHg 69%
    02:00 +12°C° 0,2 mm 3 m/S 734 mmHg 72%
    03:00 +12°C° 0,4 mm 4 m/S 733 mmHg 77%
    04:00 +12°C° 0,4 mm 4 m/S 733 mmHg 82%
    05:00 +12°C° 0,4 mm 4 m/S 733 mmHg 87%
    06:00 +13°C° 0,2 mm 5 m/S 733 mmHg 87%
    07:00 +13°C° 0,2 mm 5 m/S 734 mmHg 88%
    08:00 +14°C° 0,2 mm 5 m/S 734 mmHg 88%
    09:00 +14°C° 0,5 mm 5 m/S 734 mmHg 85%
    10:00 +14°C° 0,5 mm 5 m/S 735 mmHg 81%
    11:00 +14°C° 0,5 mm 5 m/S 735 mmHg 78%
    12:00 +14°C° 0,1 mm 5 m/S 735 mmHg 70%
    13:00 +15°C° 0,1 mm 5 m/S 736 mmHg 63%
    14:00 +15°C° 0,1 mm 5 m/S 736 mmHg 55%
    15:00 +15°C° 0 mm 5 m/S 736 mmHg 55%
    16:00 +15°C° 0 mm 5 m/S 736 mmHg 55%
    17:00 +16°C° 0 mm 5 m/S 736 mmHg 55%
    18:00 +14°C° 0 mm 4 m/S 736 mmHg 61%
    19:00 +13°C° 0 mm 3 m/S 735 mmHg 68%
    20:00 +12°C° 0 mm 2 m/S 735 mmHg 75%
    21:00 +11°C° 0 mm 3 m/S 736 mmHg 77%
    22:00 +11°C° 0 mm 3 m/S 736 mmHg 79%
    23:00 +10°C° 0 mm 3 m/S 736 mmHg 81%
    Mehr zeigen